CW0343 Weather Reports


Display with metric or nautical units.
time (UTC)temp
F
wind
direction
speed
MPH
gust
MPH
rain 1hr
in
rain 24hr
in
rain mn
in
humidity
%
barometer
mb
20260905035804 79 85 4.0 10.0 0.00 0.00 0.00 54 1017.8
20260905035306 80 35 3.0 6.0 0.00 0.00 0.00 54 1017.8
20260905034804 80 34 5.0 9.0 0.00 0.00 0.00 53 1017.8
20260905033804 79 17 4.0 10.0 0.00 0.00 0.00 55 1018.1
20260905033304 79 75 5.0 9.0 0.00 0.00 0.00 56 1018.2
20260905032804 79 43 6.0 10.0 0.00 0.00 0.00 56 1018.2
20260905032306 78 56 4.0 5.0 0.00 0.00 0.00 57 1018.5
20260905031804 77 74 5.0 8.0 0.00 0.00 0.00 57 1018.7
20260905031304 77 85 4.0 8.0 0.00 0.00 0.00 57 1018.7
20260905030804 78 105 8.0 12.0 0.00 0.00 0.00 56 1018.8
20260905030306 78 112 4.0 12.0 0.00 0.00 0.00 53 1018.7
20260905025804 78 114 1.0 9.0 0.00 0.00 0.00 54 1018.9
20260905024804 77 109 3.0 7.0 0.00 0.00 0.00 54 1019.1
20260905023804 78 71 3.0 9.0 0.00 0.00 0.00 55 1019.1
20260905022804 78 66 2.0 8.0 0.00 0.00 0.00 54 1019.5
20260905022306 78 66 3.0 6.0 0.00 0.00 0.00 54 1019.5
20260905021304 78 79 2.0 5.0 0.00 0.00 0.00 56 1019.7
20260905020805 77 77 2.0 5.0 0.00 0.00 0.00 56 1019.8
20260905015804 76 107 4.0 7.0 0.00 0.00 0.00 58 1020.1
20260905015306 77 122 3.0 7.0 0.00 0.00 0.00 57 1020.2
20260905014804 77 138 3.0 3.0 0.00 0.00 0.00 55 1020.3
20260905014304 77 137 4.0 8.0 0.00 0.00 0.00 56 1020.5
20260905013805 77 100 3.0 9.0 0.00 0.00 0.00 56 1020.6
20260905013306 77 115 6.0 10.0 0.00 0.00 0.00 58 1020.7
20260905012805 77 53 5.0 10.0 0.00 0.00 0.00 57 1020.8
20260905011304 76 105 4.0 10.0 0.00 0.00 0.00 59 1021.1
20260905010305 75 61 7.0 12.0 0.00 0.00 0.00 60 1021.2
20260905005804 74 71 3.0 5.0 0.00 0.00 0.00 62 1021.4
20260905005306 74 82 4.0 9.0 0.00 0.00 0.00 62 1021.5
20260905004804 74 115 6.0 9.0 0.00 0.00 0.00 63 1021.6
20260905003804 73 76 3.0 9.0 0.00 0.00 0.00 64 1022.0
20260905003305 73 76 3.0 7.0 0.00 0.00 0.00 64 1022.0
20260905002806 74 82 3.0 7.0 0.00 0.00 0.00 66 1022.1
20260905002306 73 82 2.0 8.0 0.00 0.00 0.00 66 1022.1
20260905001805 73 57 2.0 8.0 0.00 0.00 0.00 66 1022.3
20260905000804 58 3 0.0 0.0 0.00 0.00 0.00 86 1022.4
20260905000304 58 3 0.0 0.0 0.00 0.00 0.00 86 1022.4
20260904235804 58 3 0.0 0.0 0.00 0.00 0.00 86 1022.5
20260904235306 58 2 0.0 0.0 0.00 0.00 0.00 86 1022.5
20260904234806 58 3 0.0 0.0 0.00 0.00 0.00 86 1022.6
20260904234304 58 3 0.0 0.0 0.00 0.00 0.00 86 1022.7
20260904233804 58 3 0.0 0.0 0.00 0.00 0.00 86 1022.7
20260904233304 58 3 0.0 0.0 0.00 0.00 0.00 86 1022.7
20260904232804 58 3 0.0 0.0 0.00 0.00 0.00 86 1022.8
20260904231804 58 2 0.0 0.0 0.00 0.00 0.00 86 1022.5
20260904231304 58 1 0.0 0.0 0.00 0.00 0.00 86 1022.5
20260904230305 58 3 0.0 0.0 0.00 0.00 0.00 86 1022.5
20260904225306 58 3 0.0 0.0 0.00 0.00 0.00 86 1022.5
20260904224804 58 3 0.0 0.0 0.00 0.00 0.00 86 1022.4
20260904224305 58 3 0.0 0.0 0.00 0.00 0.00 86 1022.4
20260904223804 58 3 0.0 0.0 0.00 0.00 0.00 86 1022.4
20260904222306 58 2 0.0 0.0 0.00 0.00 0.00 86 1022.1
20260904221805 58 2 0.0 0.0 0.00 0.00 0.00 86 1022.0
20260904221305 58 3 0.0 0.0 0.00 0.00 0.00 86 1022.0
20260904220806 58 3 0.0 0.0 0.00 0.00 0.00 86 1022.0
20260904220305 58 3 0.0 0.0 0.00 0.00 0.00 86 1022.0
20260904215804 58 3 0.0 0.0 0.00 0.00 0.00 86 1021.9
20260904215305 58 1 0.0 0.0 0.00 0.00 0.00 86 1021.8
20260904214804 58 3 0.0 0.0 0.00 0.00 0.00 86 1021.7
20260904214305 58 3 0.0 0.0 0.00 0.00 0.00 86 1021.7
20260904213804 58 3 0.0 0.0 0.00 0.00 0.00 86 1021.6
20260904213304 58 3 0.0 0.0 0.00 0.00 0.00 86 1021.6
20260904212805 58 3 0.0 0.0 0.00 0.00 0.00 86 1021.6
20260904212306 58 3 0.0 0.0 0.00 0.00 0.00 86 1021.4
20260904211804 58 3 0.0 0.0 0.00 0.00 0.00 86 1021.4
20260904210804 58 3 0.0 0.0 0.00 0.00 0.00 86 1021.3
20260904210304 58 2 0.0 0.0 0.00 0.00 0.00 86 1021.2
20260904205305 58 3 0.0 0.0 0.00 0.00 0.00 86 1021.1
20260904204805 58 3 0.0 0.0 0.00 0.00 0.00 86 1021.0
20260904204304 58 3 0.0 0.0 0.00 0.00 0.00 86 1021.0
20260904203305 58 3 0.0 0.0 0.00 0.00 0.00 86 1020.9
20260904202804 58 3 0.0 0.0 0.00 0.00 0.00 86 1020.8
20260904202306 58 3 0.0 0.0 0.00 0.00 0.00 86 1020.7
20260904201804 58 3 0.0 0.0 0.00 0.00 0.00 86 1020.6
20260904201306 58 3 0.0 0.0 0.00 0.00 0.00 86 1020.5
20260904200804 58 3 0.0 0.0 0.00 0.00 0.00 86 1020.4
20260904200305 58 3 0.0 0.0 0.00 0.00 0.00 86 1020.3
20260904195804 58 3 0.0 0.0 0.00 0.00 0.00 86 1020.3
20260904195306 58 3 0.0 0.0 0.00 0.00 0.00 86 1020.1
20260904194804 58 3 0.0 0.0 0.00 0.00 0.00 86 1020.1
20260904194304 58 3 0.0 0.0 0.00 0.00 0.00 86 1020.1
20260904193306 58 3 0.0 0.0 0.00 0.00 0.00 86 1019.9
20260904192805 58 3 0.0 0.0 0.00 0.00 0.00 86 1019.9
20260904192306 58 3 0.0 0.0 0.00 0.00 0.00 86 1019.9
20260904191804 58 4 0.0 0.0 0.00 0.00 0.00 86 1019.8
20260904191304 58 3 0.0 0.0 0.00 0.00 0.00 86 1019.7
20260904190805 58 3 0.0 0.0 0.00 0.00 0.00 86 1019.7
20260904190305 58 3 0.0 0.0 0.00 0.00 0.00 86 1019.7
20260904185804 58 3 0.0 0.0 0.00 0.00 0.00 86 1019.7
20260904185306 58 3 0.0 0.0 0.00 0.00 0.00 86 1019.6
20260904184805 58 3 0.0 0.0 0.00 0.00 0.00 86 1019.6
20260904184304 58 3 0.0 0.0 0.00 0.00 0.00 86 1019.6
20260904183805 58 3 0.0 0.0 0.00 0.00 0.00 86 1019.5
20260904183304 58 3 0.0 0.0 0.00 0.00 0.00 86 1019.5
20260904182805 58 3 0.0 0.0 0.00 0.00 0.00 86 1019.5
20260904182306 58 3 0.0 0.0 0.00 0.00 0.00 86 1019.5
20260904181804 58 3 0.0 0.0 0.00 0.00 0.00 86 1019.5
20260904181304 58 3 0.0 0.0 0.00 0.00 0.00 86 1019.5
20260904180305 58 3 0.0 0.0 0.00 0.00 0.00 86 1019.5
20260904175804 58 3 0.0 0.0 0.00 0.00 0.00 86 1019.6
20260904175305 58 3 0.0 0.0 0.00 0.00 0.00 86 1019.5
20260904174804 58 3 0.0 0.0 0.00 0.00 0.00 86 1019.6
20260904174304 58 3 0.0 0.0 0.00 0.00 0.00 86 1019.6
20260904173804 58 3 0.0 0.0 0.00 0.00 0.00 86 1019.6
20260904173304 58 3 0.0 0.0 0.00 0.00 0.00 86 1019.6
20260904172804 58 3 0.0 0.0 0.00 0.00 0.00 86 1019.6
20260904172306 58 3 0.0 0.0 0.00 0.00 0.00 86 1019.6
20260904171305 58 3 0.0 0.0 0.00 0.00 0.00 86 1019.6
20260904170304 58 3 0.0 0.0 0.00 0.00 0.00 86 1019.8
20260904165804 58 3 0.0 0.0 0.00 0.00 0.00 86 1019.8
20260904165305 58 3 0.0 1.0 0.00 0.00 0.00 86 1019.8
20260904164804 58 88 1.0 1.0 0.00 0.00 0.00 86 1019.8
20260904164304 58 88 1.0 3.0 0.00 0.00 0.00 86 1019.8
20260904163805 58 88 2.0 3.0 0.00 0.00 0.00 86 1019.8
20260904163304 58 87 2.0 5.0 0.00 0.00 0.00 86 1019.8
20260904162804 58 87 3.0 3.0 0.00 0.00 0.00 85 1019.9
20260904162306 58 87 2.0 3.0 0.00 0.00 0.00 85 1020.0
20260904161805 58 87 2.0 3.0 0.00 0.00 0.00 85 1020.0
20260904161304 58 87 2.0 3.0 0.00 0.00 0.00 85 1020.1
20260904160804 58 87 1.0 3.0 0.00 0.00 0.00 85 1020.1
20260904160303 58 87 2.0 3.0 0.00 0.00 0.00 85 1020.1
20260904155805 59 87 2.0 3.0 0.00 0.00 0.00 85 1020.1
20260904155306 59 87 2.0 3.0 0.00 0.00 0.00 85 1020.2
20260904154804 59 87 2.0 5.0 0.00 0.00 0.00 85 1020.2
20260904153804 59 86 3.0 7.0 0.00 0.00 0.00 85 1020.2
20260904153305 59 83 2.0 7.0 0.00 0.00 0.00 85 1020.3
20260904152805 59 81 3.0 7.0 0.00 0.00 0.00 85 1020.4
20260904152306 59 77 3.0 3.0 0.00 0.00 0.00 85 1020.4
20260904151305 59 74 2.0 5.0 0.00 0.00 0.00 85 1020.6
20260904150805 59 73 3.0 5.0 0.00 0.00 0.00 85 1020.7
20260904145804 58 63 2.0 3.0 0.00 0.00 0.00 85 1020.8
20260904144804 59 63 2.0 3.0 0.00 0.00 0.00 85 1021.0
20260904144305 59 63 2.0 5.0 0.00 0.00 0.00 85 1021.1
20260904143805 59 62 2.0 3.0 0.00 0.00 0.00 85 1021.1
20260904143304 59 62 3.0 5.0 0.00 0.00 0.00 85 1021.1
20260904142804 59 61 3.0 5.0 0.00 0.00 0.00 85 1021.1
20260904142306 59 58 3.0 6.0 0.00 0.00 0.00 84 1021.2
20260904141804 58 55 3.0 5.0 0.00 0.00 0.00 84 1021.2
20260904141304 58 54 3.0 5.0 0.00 0.00 0.00 84 1021.2
20260904140805 58 53 2.0 3.0 0.00 0.00 0.00 84 1021.3
20260904135805 59 53 1.0 2.0 0.00 0.00 0.00 84 1021.5
20260904135306 59 53 1.0 2.0 0.00 0.00 0.00 84 1021.6
20260904134805 59 53 2.0 3.0 0.00 0.00 0.00 84 1021.6
20260904133806 59 52 3.0 5.0 0.00 0.00 0.00 83 1021.5
20260904132804 59 50 3.0 5.0 0.00 0.00 0.00 83 1021.7
20260904132306 59 49 2.0 3.0 0.00 0.00 0.00 83 1021.7
20260904131804 60 49 3.0 3.0 0.00 0.00 0.00 83 1021.7
20260904131305 60 49 2.0 3.0 0.00 0.00 0.00 83 1021.8
20260904130805 60 49 2.0 3.0 0.00 0.00 0.00 83 1021.7
20260904130304 60 48 2.0 3.0 0.00 0.00 0.00 83 1021.7
20260904125804 60 48 2.0 3.0 0.00 0.00 0.00 83 1021.7
20260904125306 60 47 2.0 3.0 0.00 0.00 0.00 83 1021.7
20260904124804 60 47 2.0 3.0 0.00 0.00 0.00 83 1021.8
20260904124304 60 47 2.0 3.0 0.00 0.00 0.00 83 1021.8
20260904123804 60 47 2.0 3.0 0.00 0.00 0.00 83 1021.8
20260904123304 60 47 0.0 2.0 0.00 0.00 0.00 82 1021.8
20260904122804 60 47 2.0 3.0 0.00 0.00 0.00 82 1021.7
20260904122307 60 47 2.0 3.0 0.00 0.00 0.00 82 1021.7
20260904121304 60 47 2.0 3.0 0.00 0.00 0.00 82 1021.8
20260904120805 60 47 2.0 3.0 0.00 0.00 0.00 82 1021.8
20260904120306 60 46 2.0 3.0 0.00 0.00 0.00 81 1021.7
20260904115805 60 46 2.0 3.0 0.00 0.00 0.00 81 1021.7
20260904115306 61 46 2.0 3.0 0.00 0.00 0.00 81 1021.6
20260904114804 61 46 1.0 3.0 0.00 0.00 0.00 81 1021.5
20260904114304 61 46 1.0 3.0 0.00 0.00 0.00 81 1021.5
20260904113304 61 46 1.0 3.0 0.00 0.00 0.00 81 1021.5
20260904112804 61 47 1.0 2.0 0.00 0.00 0.00 81 1021.4
20260904112306 61 47 1.0 2.0 0.00 0.00 0.00 80 1021.3
20260904111804 61 47 1.0 3.0 0.00 0.00 0.00 80 1021.3
20260904111305 62 47 1.0 3.0 0.00 0.00 0.00 80 1021.2
20260904110805 62 47 1.0 3.0 0.00 0.00 0.00 80 1021.2
20260904105804 62 46 1.0 3.0 0.00 0.00 0.00 80 1021.1
20260904105306 62 47 0.0 0.0 0.00 0.00 0.00 80 1021.1
20260904104806 62 47 1.0 2.0 0.00 0.00 0.00 80 1021.0
20260904104304 62 46 1.0 3.0 0.00 0.00 0.00 79 1020.9
20260904103804 62 47 1.0 2.0 0.00 0.00 0.00 79 1020.9
20260904103304 62 47 1.0 2.0 0.00 0.00 0.00 79 1020.8
20260904102307 63 47 0.0 0.0 0.00 0.00 0.00 78 1020.7
20260904101804 63 46 0.0 0.0 0.00 0.00 0.00 77 1020.7
20260904101304 63 46 0.0 0.0 0.00 0.00 0.00 77 1020.6
20260904100804 64 46 0.0 0.0 0.00 0.00 0.00 78 1020.4
20260904095805 64 47 1.0 3.0 0.00 0.00 0.00 77 1020.3
20260904095306 64 47 1.0 3.0 0.00 0.00 0.00 76 1020.2
20260904094804 65 47 1.0 3.0 0.00 0.00 0.00 75 1020.1
20260904094304 65 47 0.0 2.0 0.00 0.00 0.00 75 1020.0
20260904093304 65 47 0.0 0.0 0.00 0.00 0.00 74 1020.0
20260904092805 66 47 1.0 3.0 0.00 0.00 0.00 74 1019.9
20260904092306 66 47 2.0 7.0 0.00 0.00 0.00 73 1019.8
20260904091304 66 46 2.0 3.0 0.00 0.00 0.00 72 1019.8
20260904090305 67 46 2.0 5.0 0.00 0.00 0.00 71 1019.6
20260904085805 67 45 2.0 3.0 0.00 0.00 0.00 70 1019.6
20260904085306 68 44 2.0 5.0 0.00 0.00 0.00 70 1019.6
20260904084804 68 45 3.0 6.0 0.00 0.00 0.00 69 1019.6
20260904084305 68 47 3.0 5.0 0.00 0.00 0.00 68 1019.6
20260904083804 68 47 3.0 6.0 0.00 0.00 0.00 68 1019.6
20260904082805 69 51 3.0 6.0 0.00 0.00 0.00 66 1019.5
20260904082306 70 57 3.0 6.0 0.00 0.00 0.00 66 1019.4
20260904081805 70 54 4.0 7.0 0.00 0.00 0.00 65 1019.4
20260904080805 71 70 3.0 7.0 0.00 0.00 0.00 65 1019.2
20260904075804 71 56 5.0 9.0 0.00 0.00 0.00 64 1019.2
20260904075306 71 61 3.0 9.0 0.00 0.00 0.00 63 1019.2
20260904074804 72 57 5.0 10.0 0.00 0.00 0.00 63 1019.1
20260904074304 72 61 5.0 12.0 0.00 0.00 0.00 63 1019.1
20260904072804 73 77 8.0 13.0 0.00 0.00 0.00 62 1018.9
20260904071804 74 62 5.0 12.0 0.00 0.00 0.00 62 1018.8
20260904070804 74 81 7.0 12.0 0.00 0.00 0.00 61 1018.6
20260904070305 74 80 8.0 12.0 0.00 0.00 0.00 60 1018.5
20260904065805 75 49 6.0 12.0 0.00 0.00 0.00 60 1018.5
20260904064804 76 94 9.0 15.0 0.00 0.00 0.00 58 1018.3
20260904064305 76 44 6.0 12.0 0.00 0.00 0.00 58 1018.4
20260904063805 76 87 7.0 12.0 0.00 0.00 0.00 57 1018.2
20260904062804 76 45 7.0 13.0 0.00 0.00 0.00 56 1018.1
20260904061804 76 65 7.0 15.0 0.00 0.00 0.00 55 1017.9
20260904061306 76 58 6.0 13.0 0.00 0.00 0.00 55 1017.9
20260904060304 77 86 9.0 15.0 0.00 0.00 0.00 54 1017.8
20260904055806 77 59 7.0 13.0 0.00 0.00 0.00 54 1017.8
20260904055306 77 84 6.0 13.0 0.00 0.00 0.00 54 1017.7
20260904054805 77 61 7.0 12.0 0.00 0.00 0.00 53 1017.9
20260904054306 77 74 7.0 12.0 0.00 0.00 0.00 52 1017.8
20260904053806 77 65 7.0 13.0 0.00 0.00 0.00 53 1017.9
20260904053304 77 61 9.0 12.0 0.00 0.00 0.00 53 1017.9
20260904052805 77 73 7.0 14.0 0.00 0.00 0.00 53 1017.9
20260904052307 77 86 9.0 14.0 0.00 0.00 0.00 51 1017.9
20260904051305 78 101 9.0 14.0 0.00 0.00 0.00 51 1017.9
20260904050805 78 64 8.0 14.0 0.00 0.00 0.00 51 1017.9
20260904050304 78 69 7.0 13.0 0.00 0.00 0.00 51 1017.9
20260904045805 78 60 10.0 15.0 0.00 0.00 0.00 50 1018.0
20260904045307 78 77 9.0 13.0 0.00 0.00 0.00 50 1018.0
20260904044304 78 67 7.0 13.0 0.00 0.00 0.00 50 1018.1
20260904043304 78 88 6.0 18.0 0.00 0.00 0.00 52 1018.5
20260904042805 79 83 7.0 14.0 0.00 0.00 0.00 49 1018.5
20260904042306 79 92 7.0 15.0 0.00 0.00 0.00 52 1018.6
20260904041804 78 67 9.0 14.0 0.00 0.00 0.00 50 1018.5
20260904041304 78 72 7.0 14.0 0.00 0.00 0.00 51 1018.7
20260904040305 78 113 8.0 14.0 0.00 0.00 0.00 51 1018.8